Time, Mavişehir_Yaya_IN, Mavişehir_Yaya_OUT, Mavişehir_Yaya_TOTAL, Mavişehir_Bisiklet_IN, Mavişehir_Bisiklet_OUT,Mavişehir_Bisiklet_TOTAL, Turan_Yaya_IN, Turan_Yaya_OUT, Turan_Yaya_TOTAL, Turan_Bisiklet_IN, Turan_Bisiklet_OUT, Turan_Bisiklet_TOTAL, Pasaport_ Yaya_IN, Pasaport_Yaya_OUT, Pasaport_Yaya_TOTAL, Pasaport_Bisiklet_IN, Pasaport_Bisiklet_OUT, Pasaport_Bisiklet_TOTAL, Alsancak_ Yaya_IN, Alsancak_Yaya_OUT, Alsancak_Yaya_TOTAL, Alsancak_Bisiklet_IN, Alsancak_Bisiklet_OUT, Alsancak_Bisiklet_TOTAL, Konak_ Yaya_IN, Konak_Yaya_OUT, Konak_Yaya_TOTAL, Konak_Bisiklet_IN, Konak_Bisiklet_OUT, Konak_Bisiklet_TOTAL, Göztepe_ Yaya_IN, Göztepe_Yaya_OUT, Göztepe_Yaya_TOTAL, Göztepe_Bisiklet_IN, Göztepe_Bisiklet_OUT, Göztepe_Bisiklet_TOTAL, Bostanlı_ Yaya_IN, Bostanlı_Yaya_OUT, Bostanlı_Yaya_TOTAL, Bostanlı_Bisiklet_IN, Bostanlı_Bisiklet_OUT, Bostanlı_Bisiklet_TOTAL
01-01-2020 00:00:00,220,171,391,80,101,181,102,542,644,62,56,118,6519,3911,10430,393,323,716,774,585,1359,159,161,320,4838,2613,7451,338,286,624,82,86,168,35,47,82,628,943,1571,360,356,716
02-01-2020 00:00:00,121,101,222,42,43,85,324,1037,1361,94,72,166,2219,2255,4474,221,267,488,152,83,235,39,45,84,1892,1129,3021,193,175,368,108,130,238,64,72,136,221,380,601,136,123,259
03-01-2020 00:00:00,124,101,225,52,74,126,351,1032,1383,66,88,154,3133,3362,6495,316,325,641,209,129,338,102,106,208,2697,1684,4381,288,233,521,300,270,570,159,165,324,334,550,884,196,236,432
04-01-2020 00:00:00,235,184,419,183,213,396,156,829,985,104,126,230,4740,5274,10014,471,533,1004,532,315,847,263,320,583,4026,2969,6995,445,467,912,531,446,977,285,317,602,621,964,1585,492,500,992
05-01-2020 00:00:00,270,208,478,157,200,357,119,648,767,91,91,182,3431,3693,7124,296,302,598,283,146,429,138,146,284,3194,2442,5636,304,297,601,462,487,949,260,320,580,700,964,1664,448,473,921
06-01-2020 00:00:00,62,49,111,9,9,18,223,883,1106,32,40,72,927,1136,2063,91,89,180,56,50,106,17,15,32,857,403,1260,67,37,104,37,58,95,15,18,33,72,120,192,27,25,52
07-01-2020 00:00:00,77,68,145,15,19,34,264,995,1259,35,37,72,1846,1919,3765,184,211,395,154,93,247,42,40,82,1553,922,2475,151,118,269,158,186,344,63,78,141,201,347,548,90,143,233
08-01-2020 00:00:00,99,73,172,48,50,98,298,986,1284,61,69,130,2172,2242,4414,207,240,447,149,100,249,53,51,104,1857,1086,2943,182,161,343,184,201,385,78,96,174,296,408,704,149,167,316
09-01-2020 00:00:00,107,91,198,73,88,161,309,1029,1338,105,90,195,2579,2674,5253,257,290,547,165,107,272,66,58,124,2140,1185,3325,249,208,457,219,221,440,133,157,290,250,470,720,226,216,442
10-01-2020 00:00:00,140,99,239,78,75,153,296,970,1266,90,92,182,3858,4259,8117,330,424,754,296,176,472,137,162,299,3266,1857,5123,319,305,624,243,296,539,160,179,339,309,466,775,197,213,410
11-01-2020 00:00:00,258,207,465,237,292,529,203,918,1121,112,104,216,6439,7420,13859,457,602,1059,761,495,1256,259,262,521,5369,3768,9137,523,552,1075,548,556,1104,332,403,735,695,915,1610,534,544,1078
12-01-2020 00:00:00,386,337,723,354,377,731,144,655,799,144,146,290,5612,5850,11462,549,647,1196,596,368,964,347,398,745,5272,3831,9103,625,645,1270,860,887,1747,532,611,1143,850,1437,2287,726,791,1517
13-01-2020 00:00:00,196,164,360,83,86,169,393,1026,1419,104,80,184,3756,4000,7756,406,499,905,310,176,486,127,169,296,3016,1834,4850,364,380,744,311,305,616,165,192,357,17,40,57,3,2,5
14-01-2020 00:00:00,196,177,373,94,116,210,311,940,1251,100,95,195,3850,4222,8072,392,500,892,251,201,452,184,189,373,2852,1855,4707,382,354,736,403,379,782,210,250,460,417,626,1043,283,351,634
15-01-2020 00:00:00,149,122,271,108,121,229,296,973,1269,88,85,173,4022,4434,8456,428,521,949,343,166,509,188,198,386,3532,2220,5752,432,416,848,369,358,727,179,224,403,509,652,1161,290,274,564
16-01-2020 00:00:00,155,143,298,119,125,244,281,942,1223,113,106,219,4329,4499,8828,425,501,926,354,249,603,159,208,367,3403,1912,5315,381,361,742,346,379,725,218,257,475,416,608,1024,323,309,632
17-01-2020 00:00:00,147,122,269,84,89,173,299,1002,1301,99,96,195,4848,4634,9482,360,453,813,497,396,893,161,153,314,3711,2132,5843,357,332,689,254,316,570,146,203,349,365,529,894,235,246,481
18-01-2020 00:00:00,243,202,445,198,255,453,235,857,1092,117,129,246,4941,5019,9960,503,521,1024,421,330,751,216,239,455,3905,2546,6451,549,435,984,409,449,858,277,336,613,644,875,1519,470,515,985
19-01-2020 00:00:00,342,282,624,237,325,562,126,672,798,108,110,218,5175,5288,10463,465,491,956,488,342,830,230,250,480,4426,3404,7830,495,445,940,587,559,1146,369,472,841,750,1167,1917,678,730,1408
20-01-2020 00:00:00,134,99,233,53,69,122,337,953,1290,58,67,125,3151,3240,6391,275,324,599,239,145,384,109,123,232,2525,1555,4080,261,253,514,180,219,399,103,131,234,254,425,679,201,200,401
21-01-2020 00:00:00,105,72,177,47,43,90,291,989,1280,67,70,137,2686,2975,5661,222,256,478,203,91,294,76,77,153,2330,1368,3698,262,219,481,168,198,366,121,126,247,275,444,719,198,249,447
22-01-2020 00:00:00,130,104,234,75,85,160,290,894,1184,78,78,156,3793,4309,8102,323,446,769,297,234,531,175,203,378,3028,1970,4998,353,354,707,288,299,587,138,140,278,448,563,1011,244,257,501
23-01-2020 00:00:00,150,123,273,105,122,227,326,989,1315,68,71,139,3665,3912,7577,280,358,638,260,157,417,123,129,252,3033,2010,5043,304,275,579,220,245,465,164,207,371,329,469,798,340,309,649
24-01-2020 00:00:00,151,128,279,69,89,158,276,903,1179,73,80,153,4550,4791,9341,371,411,782,361,226,587,161,198,359,3541,2304,5845,399,376,775,288,260,548,189,200,389,358,545,903,248,258,506
25-01-2020 00:00:00,228,178,406,211,263,474,184,840,1024,100,92,192,6700,6927,13627,586,565,1151,605,426,1031,349,425,774,5108,3727,8835,578,584,1162,522,483,1005,328,405,733,642,928,1570,522,552,1074
26-01-2020 00:00:00,310,235,545,178,239,417,125,623,748,128,129,257,5715,5605,11320,557,600,1157,573,309,882,390,432,822,5016,3654,8670,653,617,1270,908,653,1561,420,490,910,828,1123,1951,598,652,1250
27-01-2020 00:00:00,129,99,228,64,90,154,215,906,1121,68,78,146,4315,4741,9056,377,430,807,270,177,447,189,240,429,3333,2340,5673,328,305,633,271,221,492,142,210,352,413,554,967,217,242,459
28-01-2020 00:00:00,188,175,363,102,131,233,247,895,1142,77,77,154,4734,5350,10084,463,532,995,422,267,689,262,279,541,4039,2774,6813,451,427,878,380,327,707,205,265,470,496,807,1303,330,402,732
29-01-2020 00:00:00,169,135,304,105,127,232,294,909,1203,93,91,184,5173,5379,10552,501,521,1022,417,289,706,310,369,679,4323,2758,7081,514,486,1000,416,364,780,292,380,672,633,704,1337,375,362,737
30-01-2020 00:00:00,94,85,179,37,49,86,311,839,1150,49,52,101,2685,2902,5587,241,282,523,269,136,405,82,114,196,2303,1488,3791,191,172,363,200,177,377,66,72,138,367,528,895,240,258,498
31-01-2020 00:00:00,209,181,390,153,191,344,295,954,1249,105,98,203,5394,5690,11084,534,548,1082,421,272,693,304,334,638,4328,2882,7210,598,571,1169,439,429,868,317,382,699,609,821,1430,446,464,910
01-02-2020 00:00:00,352,268,620,313,378,691,193,812,1005,183,147,330,6347,6811,13158,704,589,1293,702,450,1152,583,622,1205,6083,4279,10362,764,720,1484,743,718,1461,546,627,1173,912,1306,2218,830,880,1710
02-02-2020 00:00:00,421,351,772,412,516,928,138,637,775,193,200,393,6816,7230,14046,786,768,1554,880,507,1387,579,647,1226,5865,4789,10654,960,944,1904,1153,1104,2257,733,757,1490,1395,1719,3114,1101,1248,2349
03-02-2020 00:00:00,213,157,370,81,98,179,266,770,1036,70,82,152,3956,4144,8100,441,444,885,310,211,521,162,240,402,3272,1973,5245,409,398,807,320,259,579,238,276,514,534,707,1241,321,341,662
04-02-2020 00:00:00,238,183,421,129,164,293,306,961,1267,104,110,214,4259,4565,8824,486,556,1042,369,203,572,216,251,467,3446,2192,5638,457,437,894,418,416,834,333,378,711,644,974,1618,451,473,924
05-02-2020 00:00:00,65,57,122,9,15,24,297,937,1234,44,47,91,1108,1165,2273,145,127,272,120,98,218,21,31,52,1079,904,1983,123,96,219,91,92,183,31,47,78,198,233,431,56,69,125
06-02-2020 00:00:00,134,91,225,39,52,91,253,916,1169,58,51,109,2150,2566,4716,165,196,361,197,180,377,49,65,114,1905,1342,3247,135,131,266,150,163,313,67,100,167,258,348,606,128,133,261
07-02-2020 00:00:00,110,87,197,45,47,92,342,927,1269,71,64,135,2786,2793,5579,238,275,513,187,124,311,64,64,128,2375,1199,3574,208,180,388,146,143,289,96,121,217,266,379,645,143,157,300
08-02-2020 00:00:00,160,129,289,62,79,141,191,768,959,65,60,125,3131,3232,6363,244,269,513,224,155,379,84,78,162,2732,1499,4231,237,189,426,185,207,392,111,174,285,381,578,959,228,280,508
09-02-2020 00:00:00,279,232,511,121,166,287,154,536,690,73,69,142,4037,4109,8146,333,368,701,333,125,458,138,162,300,3555,2436,5991,412,404,816,413,435,848,255,276,531,546,792,1338,353,385,738
10-02-2020 00:00:00,187,146,333,65,86,151,386,926,1312,71,72,143,3573,3792,7365,315,383,698,238,176,414,109,127,236,3036,1815,4851,262,276,538,294,282,576,157,170,327,401,529,930,190,213,403
11-02-2020 00:00:00,214,174,388,112,147,259,391,974,1365,142,154,296,4132,4409,8541,439,459,898,385,220,605,183,213,396,3692,2228,5920,449,430,879,385,317,702,237,319,556,602,875,1477,386,486,872
12-02-2020 00:00:00,228,200,428,129,145,274,360,933,1293,129,104,233,4014,4348,8362,458,524,982,321,211,532,181,246,427,3790,2307,6097,409,431,840,437,394,831,237,333,570,623,795,1418,326,329,655
13-02-2020 00:00:00,228,189,417,121,156,277,369,977,1346,126,144,270,4658,4961,9619,544,565,1109,356,228,584,224,306,530,4072,2506,6578,563,526,1089,401,394,795,249,349,598,592,863,1455,370,428,798
14-02-2020 00:00:00,207,175,382,72,89,161,318,1010,1328,86,85,171,4714,4937,9651,430,448,878,446,260,706,173,205,378,4425,2598,7023,355,343,698,296,286,582,207,285,492,423,577,1000,238,244,482
15-02-2020 00:00:00,95,73,168,17,26,43,239,736,975,31,22,53,3093,3117,6210,163,172,335,279,141,420,70,62,132,2709,1598,4307,121,107,228,164,189,353,67,79,146,201,296,497,104,112,216
16-02-2020 00:00:00,454,385,839,255,341,596,156,647,803,149,128,277,5476,5577,11053,566,517,1083,446,276,722,328,380,708,5833,4214,10047,756,681,1437,802,782,1584,763,693,1456,1132,1460,2592,864,905,1769
17-02-2020 00:00:00,245,203,448,113,134,247,329,876,1205,105,114,219,4302,4491,8793,427,537,964,383,242,625,212,292,504,3581,2256,5837,442,448,890,402,363,765,271,282,553,629,987,1616,392,419,811
18-02-2020 00:00:00,297,263,560,174,215,389,378,1045,1423,128,131,259,5120,5333,10453,554,637,1191,429,242,671,250,306,556,4090,2540,6630,579,554,1133,527,474,1001,329,441,770,748,1186,1934,518,564,1082
19-02-2020 00:00:00,264,180,444,164,210,374,358,976,1334,162,161,323,5206,5412,10618,563,600,1163,438,260,698,263,335,598,4330,2541,6871,558,534,1092,537,493,1030,311,384,695,768,1075,1843,495,478,973
20-02-2020 00:00:00,107,76,183,17,29,46,322,932,1254,63,63,126,2228,2282,4510,212,203,415,207,92,299,52,61,113,1912,1237,3149,157,138,295,173,182,355,73,102,175,290,439,729,124,137,261
21-02-2020 00:00:00,103,95,198,21,35,56,348,931,1279,61,74,135,3095,3089,6184,272,298,570,237,147,384,75,87,162,2856,1688,4544,283,243,526,178,182,360,79,113,192,277,439,716,111,139,250
22-02-2020 00:00:00,227,179,406,115,148,263,227,851,1078,81,75,156,5219,5300,10519,504,511,1015,358,181,539,177,196,373,4383,2703,7086,467,395,862,540,422,962,223,306,529,609,820,1429,456,477,933
23-02-2020 00:00:00,432,367,799,322,391,713,144,731,875,168,143,311,6985,7567,14552,713,729,1442,863,470,1333,473,550,1023,6253,4444,10697,788,799,1587,1000,898,1898,589,683,1272,1199,1619,2818,944,988,1932
24-02-2020 00:00:00,251,181,432,106,132,238,380,941,1321,122,128,250,4341,4705,9046,542,643,1185,363,183,546,252,284,536,3690,2346,6036,521,485,1006,473,406,879,307,347,654,503,840,1343,327,324,651
25-02-2020 00:00:00,302,256,558,142,185,327,402,1016,1418,153,144,297,4728,4950,9678,590,671,1261,426,264,690,304,363,667,3935,2469,6404,627,605,1232,520,453,973,308,390,698,648,1046,1694,417,521,938
26-02-2020 00:00:00,210,148,358,106,143,249,382,1082,1464,136,142,278,4325,4433,8758,546,635,1181,424,341,765,285,360,645,3592,2195,5787,531,531,1062,457,425,882,288,333,621,739,847,1586,360,397,757
27-02-2020 00:00:00,136,109,245,17,31,48,331,944,1275,88,72,160,2957,3263,6220,354,405,759,246,179,425,153,155,308,2609,1567,4176,296,271,567,240,228,468,137,138,275,357,429,786,139,171,310
28-02-2020 00:00:00,238,178,416,96,118,214,310,990,1300,132,133,265,4253,4802,9055,507,601,1108,427,270,697,252,302,554,4019,2663,6682,495,477,972,540,507,1047,300,333,633,579,829,1408,331,380,711
29-02-2020 00:00:00,99,75,174,30,34,64,201,763,964,45,47,92,2978,2529,5507,245,239,484,323,118,441,143,121,264,2791,1584,4375,287,259,546,173,185,358,76,109,185,243,379,622,149,170,319
01-03-2020 00:00:00,496,387,883,416,557,973,150,687,837,240,254,494,7649,8194,15843,774,825,1599,840,609,1449,669,733,1402,6552,5039,11591,978,972,1950,1236,1070,2306,814,949,1763,1485,1942,3427,1126,1171,2297
02-03-2020 00:00:00,259,206,465,101,151,252,369,1020,1389,140,160,300,4075,4264,8339,522,611,1133,346,242,588,301,335,636,3243,2058,5301,563,540,1103,489,402,891,334,389,723,707,1015,1722,384,428,812
03-03-2020 00:00:00,298,246,544,158,247,405,316,942,1258,153,182,335,4599,4722,9321,649,677,1326,454,370,824,321,442,763,3841,2515,6356,741,685,1426,612,493,1105,421,506,927,869,1284,2153,549,680,1229
04-03-2020 00:00:00,201,145,346,94,120,214,462,1043,1505,125,137,262,4110,4406,8516,528,568,1096,395,288,683,302,345,647,3756,2366,6122,597,527,1124,479,427,906,356,395,751,804,875,1679,398,403,801
05-03-2020 00:00:00,94,71,165,13,24,37,330,962,1292,43,54,97,2173,2404,4577,161,189,350,185,144,329,48,53,101,1810,1223,3033,154,104,258,142,147,289,71,78,149,181,229,410,89,107,196
06-03-2020 00:00:00,279,250,529,175,217,392,358,1069,1427,175,134,309,5557,6089,11646,589,711,1300,551,379,930,411,475,886,4587,3045,7632,676,702,1378,536,519,1055,448,530,978,748,1092,1840,514,520,1034
07-03-2020 00:00:00,375,228,603,346,464,810,263,877,1140,221,191,412,8797,9099,17896,883,850,1733,1182,795,1977,746,750,1496,7233,5175,12408,1093,984,2077,961,838,1799,712,851,1563,1180,1564,2744,1033,1073,2106
08-03-2020 00:00:00,493,358,851,409,591,1000,182,728,910,221,214,435,7740,7508,15248,1028,1046,2074,1093,730,1823,813,871,1684,7713,5290,13003,1191,1124,2315,1132,1039,2171,907,1030,1937,1450,1905,3355,1354,1251,2605
09-03-2020 00:00:00,289,218,507,162,220,382,372,988,1360,132,133,265,4206,4462,8668,605,664,1269,352,267,619,343,395,738,3623,2377,6000,592,628,1220,480,454,934,354,417,771,673,1111,1784,503,527,1030
10-03-2020 00:00:00,194,156,350,49,66,115,318,952,1270,76,75,151,3028,3349,6377,291,357,648,216,123,339,137,172,309,2680,1622,4302,306,298,604,373,346,719,189,215,404,499,823,1322,330,422,752
11-03-2020 00:00:00,226,184,410,123,149,272,366,985,1351,137,149,286,3905,4182,8087,535,633,1168,345,227,572,231,310,541,3405,2230,5635,547,514,1061,471,445,916,300,365,665,684,1009,1693,382,370,752
12-03-2020 00:00:00,330,260,590,196,247,443,368,951,1319,231,198,429,4191,4478,8669,653,690,1343,481,361,842,333,444,777,3648,2346,5994,788,725,1513,745,626,1371,480,549,1029,880,1357,2237,572,654,1226
13-03-2020 00:00:00,312,229,541,165,228,393,388,958,1346,187,152,339,4474,4936,9410,714,775,1489,638,553,1191,506,612,1118,3717,2575,6292,798,808,1606,694,627,1321,429,484,913,746,1206,1952,519,563,1082
14-03-2020 00:00:00,572,419,991,477,614,1091,255,707,962,262,266,528,5775,5888,11663,959,981,1940,1066,900,1966,769,886,1655,4760,3406,8166,1267,1234,2501,1172,991,2163,915,1062,1977,1537,2054,3591,1386,1460,2846
15-03-2020 00:00:00,694,516,1210,576,766,1342,125,535,660,221,205,426,5016,5366,10382,1008,1055,2063,694,536,1230,744,789,1533,4872,3734,8606,1201,1204,2405,1186,1101,2287,1018,1143,2161,1589,2183,3772,1614,1661,3275
16-03-2020 00:00:00,120,90,210,35,45,80,224,731,955,79,76,155,1241,1327,2568,208,202,410,113,75,188,59,54,113,1090,684,1774,216,159,375,63,82,145,63,92,155,285,437,722,167,192,359
17-03-2020 00:00:00,260,208,468,100,152,252,198,561,759,106,100,206,2032,2068,4100,332,305,637,238,233,471,95,115,210,1540,882,2422,336,282,618,262,235,497,172,181,353,466,722,1188,354,430,784
18-03-2020 00:00:00,297,244,541,124,148,272,141,566,707,127,127,254,1490,1588,3078,277,245,522,257,206,463,112,102,214,1225,736,1961,300,237,537,263,218,481,180,204,384,620,894,1514,419,441,860
19-03-2020 00:00:00,196,164,360,42,55,97,109,466,575,63,64,127,906,1049,1955,156,176,332,307,165,472,78,92,170,757,436,1193,193,168,361,193,198,391,104,127,231,393,562,955,199,238,437
20-03-2020 00:00:00,425,363,788,160,223,383,140,454,594,117,111,228,1493,1776,3269,335,313,648,300,212,512,183,178,361,1284,808,2092,372,319,691,613,461,1074,295,310,605,754,1230,1984,481,539,1020
21-03-2020 00:00:00,649,535,1184,433,578,1011,91,352,443,145,145,290,1581,1806,3387,436,426,862,397,285,682,271,324,595,1395,1083,2478,505,457,962,864,660,1524,529,531,1060,1022,1556,2578,906,983,1889
22-03-2020 00:00:00,445,373,818,276,376,652,79,205,284,137,124,261,1093,1329,2422,325,326,651,281,210,491,214,239,453,1306,1081,2387,407,369,776,656,553,1209,339,422,761,749,987,1736,596,663,1259
23-03-2020 00:00:00,294,249,543,138,191,329,115,371,486,90,89,179,1080,1219,2299,221,232,453,213,171,384,96,108,204,1006,688,1694,260,238,498,465,414,879,214,254,468,512,716,1228,408,413,821
24-03-2020 00:00:00,365,308,673,166,201,367,99,294,393,123,123,246,974,1097,2071,221,242,463,200,163,363,115,164,279,800,644,1444,292,259,551,487,409,896,219,234,453,519,857,1376,436,453,889
25-03-2020 00:00:00,427,355,782,239,312,551,92,304,396,124,115,239,918,956,1874,253,238,491,225,145,370,106,128,234,850,639,1489,304,251,555,574,484,1058,289,332,621,745,954,1699,557,591,1148
26-03-2020 00:00:00,321,308,629,122,163,285,85,278,363,68,84,152,748,843,1591,176,182,358,160,110,270,88,97,185,634,468,1102,209,194,403,445,357,802,171,196,367,505,808,1313,426,451,877
27-03-2020 00:00:00,293,238,531,93,119,212,89,279,368,85,80,165,659,730,1389,139,160,299,129,115,244,70,82,152,603,439,1042,175,167,342,392,301,693,167,198,365,442,712,1154,304,313,617
28-03-2020 00:00:00,173,148,321,68,88,156,60,212,272,34,45,79,225,332,557,52,71,123,99,83,182,24,35,59,391,329,720,113,101,214,234,196,430,86,100,186,227,380,607,151,153,304
29-03-2020 00:00:00,208,156,364,73,76,149,54,127,181,40,47,87,263,343,606,89,82,171,138,103,241,40,57,97,339,295,634,131,87,218,181,179,360,115,119,234,182,236,418,170,161,331
30-03-2020 00:00:00,320,276,596,191,246,437,90,272,362,109,115,224,702,761,1463,210,203,413,166,111,277,71,108,179,677,411,1088,253,236,489,349,269,618,180,198,378,439,629,1068,393,392,785
31-03-2020 00:00:00,320,281,601,174,228,402,99,246,345,97,95,192,611,668,1279,173,198,371,147,106,253,86,116,202,497,395,892,226,217,443,353,302,655,200,236,436,425,578,1003,364,346,710
01-04-2020 00:00:00,329,262,591,184,250,434,104,254,358,126,130,256,613,675,1288,189,217,406,136,114,250,83,111,194,531,384,915,220,218,438,361,312,673,209,222,431,489,649,1138,398,389,787
02-04-2020 00:00:00,116,103,219,36,57,93,63,213,276,27,31,58,201,274,475,52,52,104,73,66,139,27,31,58,255,158,413,71,55,126,143,109,252,55,49,104,184,289,473,115,127,242
03-04-2020 00:00:00,308,254,562,163,212,375,87,268,355,97,96,193,630,715,1345,177,174,351,128,90,218,85,105,190,532,398,930,199,168,367,343,267,610,181,200,381,390,561,951,347,345,692
04-04-2020 00:00:00,151,139,290,78,95,173,56,174,230,51,54,105,214,229,443,89,72,161,56,51,107,24,29,53,254,165,419,102,69,171,176,124,300,83,107,190,170,225,395,136,127,263
05-04-2020 00:00:00,182,186,368,64,63,127,27,98,125,25,27,52,98,116,214,34,44,78,57,62,119,20,18,38,111,110,221,49,43,92,105,98,203,43,46,89,118,193,311,88,85,173
06-04-2020 00:00:00,154,139,293,73,94,167,87,237,324,55,50,105,361,410,771,87,66,153,61,55,116,35,25,60,287,165,452,88,77,165,124,100,224,71,88,159,204,244,448,153,164,317
07-04-2020 00:00:00,224,214,438,110,144,254,78,260,338,62,58,120,326,397,723,75,75,150,83,64,147,28,30,58,301,203,504,109,87,196,216,155,371,106,128,234,207,230,437,173,235,408
08-04-2020 00:00:00,269,223,492,102,151,253,83,237,320,102,86,188,431,567,998,136,128,264,102,67,169,68,57,125,428,261,689,178,130,308,263,226,489,215,203,418,102,112,214,61,118,179
09-04-2020 00:00:00,280,230,510,146,205,351,72,233,305,101,101,202,461,515,976,147,165,312,109,80,189,80,82,162,426,265,691,212,179,391,284,214,498,141,158,299,17,53,70,3,21,24
10-04-2020 00:00:00,252,209,461,126,169,295,90,265,355,90,88,178,477,543,1020,176,162,338,161,74,235,86,87,173,425,287,712,221,194,415,243,192,435,181,205,386,66,98,164,35,84,119
11-04-2020 00:00:00,4,2,6,3,1,4,20,29,49,8,10,18,12,17,29,4,4,8,1,5,6,1,2,3,27,21,48,14,12,26,4,5,9,3,2,5,2,0,2,1,0,1
12-04-2020 00:00:00,5,6,11,1,1,2,12,20,32,7,12,19,12,18,30,5,3,8,6,4,10,1,0,1,15,16,31,10,11,21,6,5,11,2,1,3,0,1,1,1,2,3
13-04-2020 00:00:00,297,238,535,121,164,285,103,282,385,108,98,206,500,598,1098,188,195,383,136,108,244,95,105,200,472,367,839,233,223,456,285,224,509,160,183,343,31,56,87,10,40,50
14-04-2020 00:00:00,306,252,558,162,201,363,82,237,319,99,102,201,461,499,960,207,238,445,120,111,231,101,117,218,459,290,749,254,223,477,239,190,429,183,186,369,103,96,199,120,123,243
15-04-2020 00:00:00,205,179,384,73,90,163,99,232,331,70,64,134,348,389,737,126,135,261,97,88,185,57,79,136,310,211,521,140,119,259,192,143,335,88,104,192,129,128,257,79,80,159
16-04-2020 00:00:00,287,254,541,110,156,266,90,234,324,105,103,208,527,607,1134,189,195,384,143,112,255,103,117,220,438,299,737,243,226,469,214,172,386,169,168,337,160,203,363,149,144,293
17-04-2020 00:00:00,413,314,727,156,227,383,108,268,376,110,119,229,496,592,1088,205,219,424,144,160,304,119,136,255,461,321,782,257,245,502,315,244,559,223,210,433,194,237,431,186,176,362
18-04-2020 00:00:00,4,5,9,1,2,3,9,29,38,8,6,14,22,31,53,12,12,24,10,13,23,1,3,4,22,18,40,14,13,27,5,5,10,2,5,7,2,2,4,4,3,7
19-04-2020 00:00:00,2,1,3,4,2,6,12,36,48,2,8,10,18,10,28,8,8,16,9,7,16,1,1,2,25,29,54,12,7,19,6,5,11,1,0,1,2,1,3,5,3,8
20-04-2020 00:00:00,367,304,671,180,217,397,82,262,344,135,131,266,672,735,1407,256,235,491,253,137,390,143,156,299,634,435,1069,317,259,576,426,320,746,240,255,495,261,295,556,237,213,450
21-04-2020 00:00:00,347,323,670,143,158,301,97,237,334,102,99,201,493,572,1065,218,223,441,142,127,269,88,105,193,470,356,826,254,238,492,353,268,621,161,198,359,207,289,496,198,186,384
22-04-2020 00:00:00,374,338,712,164,196,360,76,246,322,95,85,180,551,503,1054,172,180,352,143,105,248,83,93,176,421,299,720,207,169,376,323,273,596,182,199,381,254,339,593,242,258,500
23-04-2020 00:00:00,11,11,22,4,4,8,28,57,85,12,16,28,25,31,56,9,7,16,14,12,26,3,1,4,26,35,61,17,12,29,13,11,24,6,7,13,2,3,5,3,3,6
24-04-2020 00:00:00,31,23,54,3,6,9,23,62,85,19,19,38,20,23,43,7,10,17,19,12,31,2,1,3,24,22,46,26,21,47,12,7,19,3,3,6,3,1,4,7,6,13
25-04-2020 00:00:00,14,10,24,2,8,10,28,46,74,10,11,21,13,24,37,13,5,18,10,11,21,3,2,5,23,27,50,23,18,41,16,14,30,3,6,9,0,3,3,3,5,8
26-04-2020 00:00:00,11,5,16,2,8,10,15,36,51,13,12,25,17,21,38,13,4,17,23,21,44,6,3,9,22,29,51,14,8,22,7,7,14,2,3,5,1,1,2,1,2,3
27-04-2020 00:00:00,486,398,884,201,269,470,113,286,399,154,144,298,894,1020,1914,307,314,621,271,191,462,138,179,317,697,520,1217,376,328,704,509,332,841,235,257,492,382,550,932,351,331,682
28-04-2020 00:00:00,374,310,684,185,234,419,113,262,375,142,124,266,813,967,1780,237,295,532,214,157,371,128,167,295,637,562,1199,297,304,601,461,331,792,237,222,459,326,474,800,325,310,635
29-04-2020 00:00:00,400,341,741,197,253,450,94,258,352,144,157,301,806,830,1636,315,320,635,205,151,356,148,166,314,675,456,1131,352,313,665,492,399,891,290,273,563,423,597,1020,358,366,724
30-04-2020 00:00:00,408,367,775,215,279,494,85,231,316,110,115,225,569,594,1163,203,214,417,138,119,257,120,149,269,531,385,916,271,248,519,430,325,755,209,198,407,397,590,987,372,349,721
01-05-2020 00:00:00,22,21,43,6,7,13,36,57,93,15,10,25,44,45,89,9,11,20,15,10,25,4,5,9,21,26,47,14,15,29,4,3,7,3,4,7,8,9,17,5,8,13
02-05-2020 00:00:00,6,3,9,8,10,18,21,9,30,18,13,31,16,20,36,10,8,18,14,20,34,6,4,10,18,20,38,14,10,24,4,4,8,3,2,5,3,8,11,1,2,3